Theta_e
315 315 315 315 316 317 314 311 311 311 312 313 313 314 315 315 315 313 312 312 311 308 307 304 304 300 299 300 298 299 298 298 297 293 292 292 292 290 287 289 290 290 289 289 289 287 284 299 297 294 298 301 300 298
314 314 314 315 315 316 313 311 311 311 311 312 313 313 314 315 315 310 312 310 312 310 307 309 309 308 307 306 303 298 299 298 300 295 294 293 291 289 291 288 292 289 293 292 292 292 296 300 297 300 300 299 297 298
313 314 314 314 315 315 312 311 311 311 311 311 312 313 314 314 314 310 309 309 311 309 308 308 307 310 310 309 309 304 301 301 299 301 296 296 292 294 290 291 292 294 294 294 291 295 296 299 299 300 300 298 299 299
312 313 313 314 314 315 313 310 310 311 311 311 312 312 313 314 313 310 310 310 311 307 302 303 310 310 312 309 308 307 305 302 301 302 298 296 294 295 293 293 293 295 295 294 293 295 295 297 300 301 300 299 299 299
311 311 312 313 314 315 312 310 310 310 310 310 311 312 313 313 310 310 311 311 312 308 302 304 308 309 310 307 306 306 305 303 299 297 297 295 296 295 294 294 292 296 295 294 294 299 299 297 301 302 300 299 299 299
310 311 311 312 313 314 311 309 310 310 310 309 310 311 312 312 309 313 309 313 313 311 306 300 307 307 308 308 306 305 306 304 302 300 297 299 299 296 293 291 297 298 299 302 299 301 299 300 300 301 301 301 300 300
310 310 311 312 313 313 310 309 310 309 309 308 308 310 311 310 310 308 307 311 310 310 306 301 301 306 309 308 308 307 307 304 303 299 297 296 296 297 293 290 296 297 300 300 299 299 297 298 299 301 301 302 301 302
310 310 311 312 313 313 309 309 309 309 308 308 309 310 310 308 309 310 313 311 311 310 308 300 300 303 308 304 302 304 303 302 298 297 297 295 296 294 288 297 300 301 300 299 298 300 301 302 302 302 302 302 301 302
310 310 311 312 314 311 309 308 309 308 308 309 310 310 310 310 310 311 314 313 313 310 303 300 297 296 307 303 302 300 299 293 297 294 294 294 290 286 293 296 299 301 300 300 301 300 300 299 301 301 301 301 301 302
310 310 311 312 311 309 308 309 309 308 308 310 309 309 307 311 314 313 311 307 306 305 305 298 301 300 305 304 297 298 297 294 291 295 298 294 294 300 302 302 301 303 303 302 299 299 300 300 302 303 302 304 304 303
310 311 311 311 309 308 308 309 309 309 308 309 308 308 312 313 312 308 302 301 302 299 301 301 301 301 305 299 295 298 294 293 289 293 293 289 291 298 301 302 304 305 304 302 304 305 304 304 303 303 303 303 303 303
311 311 310 309 308 308 308 308 308 307 307 308 309 311 312 309 305 301 300 300 299 298 300 301 303 302 303 302 298 297 293 294 287 296 291 288 297 300 301 301 302 302 303 303 304 304 304 304 304 303 304 303 303 303
310 309 308 308 308 308 308 308 308 308 308 309 309 308 303 302 293 295 293 298 300 302 303 302 301 304 302 303 298 296 291 292 297 292 286 294 301 301 301 302 302 304 304 304 304 305 305 305 305 304 304 303 303 303
307 307 307 307 307 308 308 309 308 308 307 307 305 292 299 298 301 301 302 303 306 305 304 304 301 302 301 299 300 293 297 295 291 287 289 299 301 300 301 303 302 302 303 302 302 303 303 304 304 305 305 304 303 301
306 307 307 307 308 308 308 308 309 307 308 305 307 296 302 307 307 307 307 306 307 307 305 302 301 302 300 297 298 295 291 289 291 291 297 301 301 301 301 302 301 302 302 302 303 302 301 302 302 303 304 305 303 301
307 309 308 309 308 308 308 308 307 306 308 305 304 303 306 305 306 306 307 307 307 306 305 304 300 296 296 297 293 291 289 288 294 298 302 303 301 302 302 302 301 302 302 302 302 302 302 302 302 301 304 304 303 302
309 309 309 308 307 307 307 307 306 304 304 305 307 311 309 308 308 307 306 305 307 306 300 300 294 292 297 294 292 296 293 296 300 301 303 303 303 303 303 301 301 301 301 301 301 301 301 303 303 301 301 303 304 303
308 309 310 308 308 307 308 308 307 307 303 308 307 309 310 311 308 309 309 304 305 302 301 299 300 295 293 290 293 297 299 302 302 302 304 304 304 304 303 302 301 300 300 301 300 300 301 301 300 301 301 302 303 303
306 309 310 309 309 309 307 307 307 304 308 311 311 309 310 311 311 312 310 306 306 306 303 300 297 295 296 298 299 301 301 301 302 303 304 304 305 304 302 302 301 300 299 300 300 300 301 301 302 299 301 303 303 303
308 308 308 310 308 306 306 309 311 307 308 312 311 309 309 309 311 311 311 306 305 304 301 300 300 302 301 302 303 304 304 305 303 302 302 303 304 303 302 302 300 299 300 301 301 299 300 301 302 302 303 302 302 302
307 307 307 306 303 305 306 309 310 312 313 311 310 310 310 310 309 308 307 306 304 304 303 305 305 306 306 305 304 305 304 303 302 303 303 302 303 303 302 301 300 300 300 300 300 299 299 299 301 301 300 301 301 301
307 308 305 305 305 306 304 309 309 313 311 312 310 311 309 308 308 308 306 304 304 307 307 307 305 304 302 303 303 303 305 304 304 301 298 299 301 300 300 300 299 298 299 300 300 299 301 302 303 302 301 297 296 298
308 310 310 308 306 303 302 314 309 312 308 309 309 307 308 308 308 306 304 306 307 309 307 305 305 305 306 305 305 304 305 305 304 303 302 302 302 302 300 300 300 300 299 300 301 301 302 297 299 301 298 299 298 298
307 307 305 306 305 300 311 309 312 311 310 308 307 305 307 309 307 304 302 306 308 306 303 304 304 304 304 305 304 304 305 306 305 303 302 300 299 299 300 299 300 300 301 301 302 302 302 301 298 299 299 299 300 300
299 299 301 291 305 306 306 308 308 308 306 308 306 307 307 307 304 302 302 307 307 306 305 304 305 306 305 303 299 299 300 304 304 303 300 300 298 297 297 299 299 301 301 301 300 300 301 303 302 301 300 300 300 297
290 299 297 303 304 305 307 304 306 306 307 306 306 310 309 306 301 301 306 307 306 306 305 304 305 304 299 300 297 297 299 301 301 300 299 298 298 298 297 297 297 299 302 303 301 300 300 301 300 299 299 298 292 296
292 298 303 307 306 307 306 308 309 308 306 305 308 306 306 300 301 306 309 309 307 308 308 308 307 304 298 296 295 296 297 299 301 300 300 298 299 301 301 298 298 300 302 303 303 301 300 300 300 300 299 300 301 300
303 303 300 305 306 308 305 306 306 306 308 309 308 304 303 303 304 311 313 310 305 304 303 302 301 300 298 297 295 296 296 297 297 297 298 298 299 300 301 302 303 293 303 304 303 303 302 301 301 300 300 299 299 300
301 305 305 301 303 304 306 306 308 313 314 310 308 307 308 312 315 315 313 304 303 303 300 298 297 297 296 296 296 298 298 298 297 295 296 295 296 298 300 301 302 303 303 302 292 298 299 301 301 301 300 299 299 300
302 305 302 301 299 299 306 312 313 313 314 313 314 314 314 315 317 311 304 302 302 302 301 300 299 299 297 296 296 297 299 300 300 299 297 296 297 300 299 299 301 301 301 301 300 299 292 298 296 300 298 299 299 298
304 302 301 301 300 305 308 314 315 314 313 312 313 312 312 315 314 307 304 304 304 303 299 299 300 300 299 299 298 297 297 299 300 300 301 302 301 300 299 300 301 300 300 299 299 299 300 300 300 299 298 297 297 297
303 302 301 300 303 311 315 313 312 311 311 311 311 314 313 311 308 312 309 303 301 304 302 302 304 302 303 303 302 302 295 303 301 300 301 300 301 301 301 300 300 299 299 299 299 300 299 299 299 298 297 297 297 297
304 303 303 304 308 308 311 310 309 308 310 310 310 311 311 311 307 313 311 306 308 309 309 308 305 304 305 304 303 303 298 303 300 294 294 294 295 297 301 301 300 300 300 300 300 300 299 299 298 298 298 298 297 296
Wind_Speed
13 13 13 13 12 8 5 6 7 7 8 8 7 8 10 11 11 3 3 3 2 0 2 6 6 5 4 2 3 5 5 3 2 4 3 3 2 4 2 2 4 7 6 4 3 5 7 13 9 7 7 8 8 6
14 13 12 12 11 7 4 6 6 5 6 5 7 7 8 10 11 2 2 2 2 2 3 2 3 4 2 5 4 3 3 3 3 3 2 3 3 4 3 3 3 5 4 3 7 2 3 9 3 6 7 9 8 8
14 13 12 11 10 8 5 5 5 5 6 5 5 5 6 7 8 5 2 2 0 2 2 2 1 2 1 5 2 2 2 3 4 2 4 2 3 5 5 5 4 6 4 3 4 6 5 8 4 5 6 4 8 6
14 14 12 10 11 8 6 4 5 3 4 4 4 4 5 6 6 4 2 2 1 2 1 4 3 2 6 5 6 2 5 6 5 2 2 3 3 5 3 2 4 1 9 6 5 5 2 8 10 7 8 6 7 7
15 15 13 10 10 8 7 3 3 2 3 3 4 3 4 4 5 4 3 2 0 2 1 3 4 3 9 1 6 7 6 5 3 3 2 2 3 4 1 2 4 8 7 6 5 7 5 3 6 9 10 10 11 9
15 15 13 10 9 9 7 3 3 1 2 3 2 2 3 2 2 1 2 1 3 3 1 2 2 4 11 12 11 10 5 4 2 1 2 2 4 3 3 3 4 11 8 4 2 7 3 5 5 5 8 8 9 9
14 12 13 11 9 9 7 4 3 1 1 1 0 2 2 1 1 2 3 2 1 2 1 2 2 4 4 3 4 4 4 3 3 2 2 1 1 3 2 3 3 2 7 6 2 8 5 7 4 9 8 7 6 8
12 11 10 10 9 10 8 5 2 2 2 2 1 2 2 3 4 2 2 1 3 1 1 1 1 1 6 3 3 4 2 2 3 1 1 1 1 1 4 6 3 2 8 7 11 11 1 4 8 7 7 6 8 9
10 9 8 8 9 10 8 6 4 4 3 2 1 2 2 2 2 2 1 1 2 3 2 2 2 2 3 3 2 2 2 3 1 0 1 1 1 4 6 7 5 4 7 6 10 11 10 9 9 10 10 10 10 8
6 6 6 5 11 9 8 6 5 6 3 2 1 2 2 2 1 2 1 1 2 3 2 2 0 1 3 1 2 1 2 2 1 2 1 2 3 8 8 8 6 8 6 6 5 7 10 11 11 11 13 9 8 6
4 4 4 13 11 9 8 6 7 8 2 1 1 2 2 1 1 0 2 0 1 1 2 1 2 1 2 1 2 1 1 1 0 1 2 1 3 2 2 4 1 6 3 6 9 8 6 7 5 7 7 7 6 6
2 9 14 11 9 8 7 7 8 2 1 1 2 2 2 1 1 1 2 2 2 1 3 2 2 2 2 0 1 2 1 1 1 2 2 2 3 4 4 1 3 4 4 5 8 8 6 7 7 8 7 7 7 6
13 13 10 9 7 7 7 7 7 5 4 2 1 2 1 1 3 1 1 1 2 4 4 4 3 1 2 1 2 2 3 1 1 2 3 4 4 4 4 3 3 4 5 5 5 4 5 6 5 7 7 6 8 7
8 6 4 4 4 5 6 10 9 4 2 2 3 1 3 3 2 2 2 1 1 2 4 3 3 2 1 3 1 2 2 2 3 2 2 2 3 3 2 1 2 5 4 4 2 3 3 4 6 6 7 7 8 8
5 3 1 2 5 5 7 12 8 1 1 1 2 3 4 1 1 1 1 2 2 3 4 3 2 2 2 2 2 1 3 3 3 2 2 2 3 2 2 1 2 5 7 7 6 5 5 4 5 6 7 8 8 8
3 2 4 8 9 11 13 9 1 1 1 1 2 3 1 2 3 3 3 2 4 3 3 2 2 2 2 1 3 2 2 3 1 3 2 1 3 3 3 2 3 3 4 4 5 5 5 6 4 3 6 9 10 12
3 2 7 10 9 11 7 0 2 2 0 2 3 2 2 1 2 1 3 2 4 4 2 2 2 0 3 3 3 3 4 3 3 3 2 4 4 4 3 3 3 5 6 6 5 5 5 6 5 3 6 5 7 8
3 4 9 11 8 4 1 2 2 2 3 4 3 2 2 2 2 3 4 4 5 4 4 2 3 4 3 3 3 4 4 3 3 3 2 3 4 3 4 3 4 4 4 5 5 5 5 5 3 3 3 2 6 6
2 2 8 11 4 2 2 3 3 3 4 2 2 2 2 2 4 2 2 4 3 1 4 3 3 4 4 4 4 3 3 4 2 2 1 2 3 4 4 3 3 4 5 5 6 4 4 4 0 2 2 3 4 4
4 1 9 6 2 2 3 2 2 3 3 0 2 3 3 3 1 3 5 5 5 3 4 5 6 4 5 4 5 4 3 3 3 3 2 3 3 5 4 2 3 4 4 4 5 5 4 3 3 3 3 2 3 4
1 4 5 2 2 2 3 2 3 3 1 3 1 3 3 2 4 4 4 5 4 4 5 6 6 5 5 2 3 3 4 6 5 4 1 2 5 4 4 3 3 4 4 4 4 3 2 3 3 2 3 3 2 3
1 6 2 2 3 3 4 3 3 2 2 1 2 2 3 3 3 3 4 5 5 6 6 5 4 5 6 5 6 6 4 7 5 4 4 6 5 5 4 4 3 3 3 2 2 4 3 2 1 1 2 4 3 4
6 2 2 2 2 2 4 2 4 4 3 2 2 3 3 3 1 2 4 4 4 3 2 3 2 2 5 5 5 4 5 7 5 5 5 4 4 4 5 5 3 2 2 4 2 3 3 1 3 3 4 3 4 4
2 2 3 3 4 4 3 4 3 3 2 3 3 3 3 2 3 3 4 3 2 1 3 5 5 5 4 4 3 4 4 4 3 4 4 6 6 5 4 5 3 3 2 3 3 3 3 4 2 4 4 4 2 2
1 3 2 4 3 3 4 4 4 3 4 4 3 4 1 1 2 3 3 2 1 1 2 4 4 2 3 3 3 3 3 3 4 4 4 4 6 6 5 4 3 3 2 3 4 4 4 3 3 3 4 3 1 2
2 4 6 3 2 4 2 3 3 3 2 3 3 1 1 2 3 4 2 2 1 1 4 6 6 4 3 3 4 3 4 3 3 3 4 5 6 6 6 6 5 4 3 2 4 5 4 3 4 4 4 4 1 2
3 4 4 3 3 3 4 4 3 3 3 3 2 2 2 3 3 1 2 2 2 3 1 3 3 4 6 5 4 3 5 3 3 5 6 5 4 2 3 4 5 5 5 5 4 4 5 5 5 5 4 3 1 2
5 3 4 2 3 3 4 3 3 4 3 2 2 4 2 3 1 3 2 3 2 4 6 6 5 6 6 4 5 6 6 6 7 8 7 6 4 3 2 2 3 4 4 4 5 4 4 3 2 3 1 2 4 4
4 2 3 4 4 4 4 5 4 1 1 3 2 2 2 1 2 3 3 2 5 6 8 9 6 4 6 5 2 4 7 7 9 10 7 5 5 4 3 3 4 5 4 5 4 3 4 3 3 2 2 3 3 3
4 5 4 3 4 5 3 4 1 1 1 0 1 1 1 0 3 2 1 4 5 6 6 5 6 6 7 7 6 5 5 5 5 4 6 6 5 7 5 5 5 5 4 4 5 6 6 4 5 4 4 3 2 3
1 4 4 4 4 3 1 1 1 1 1 1 0 1 2 2 2 3 3 3 6 5 3 4 6 4 4 7 7 7 7 8 8 7 3 4 8 8 7 6 5 5 4 5 4 4 3 2 2 4 5 3 3 2
4 7 4 4 2 1 2 1 1 1 1 1 2 1 1 1 2 2 1 3 5 4 4 2 4 4 7 7 7 7 4 3 7 11 12 7 8 9 9 7 6 5 5 5 4 4 3 3 3 3 4 4 3 3
3 3 4 3 2 1 1 1 1 2 2 1 2 2 2 2 4 2 2 1 2 4 5 6 6 5 7 5 8 4 6 6 3 7 10 11 11 11 8 8 7 7 7 6 5 5 4 6 5 5 4 4 3 4
Wind_Direction
293 300 307 306 303 277 275 308 322 342 341 349 359 1 356 359 358 327 81 20 327 42 220 194 175 149 141 204 186 126 167 166 132 185 199 164 184 192 183 201 193 179 177 192 196 228 242 150 136 208 103 133 159 174
290 292 301 301 299 268 256 292 314 339 334 357 346 360 355 357 0 331 99 28 344 257 6 330 274 308 255 186 151 176 15 154 134 121 169 135 152 174 196 208 189 211 223 193 215 244 72 175 56 117 150 156 180 187
292 288 292 295 291 256 234 286 305 344 329 351 338 5 352 355 10 30 75 7 236 330 221 258 265 26 242 231 229 204 197 150 177 27 142 126 210 171 174 220 198 208 185 239 216 182 206 187 165 176 178 168 166 181
285 280 282 286 281 240 224 263 293 335 334 347 323 353 348 357 12 40 59 22 2 74 336 74 340 24 335 292 236 262 130 111 102 183 143 155 204 216 191 138 212 128 160 185 250 246 289 240 232 213 191 186 183 196
274 277 276 279 279 233 217 234 278 325 350 328 299 341 347 360 37 79 76 37 357 333 1 331 307 46 359 344 128 99 124 121 147 150 143 185 112 179 166 176 208 188 176 184 212 193 187 139 203 206 209 210 205 217
266 267 266 265 268 223 205 218 254 31 333 304 296 320 331 15 122 151 129 155 28 356 312 16 16 11 43 70 79 89 75 50 41 128 104 38 354 277 213 222 241 195 209 237 158 170 162 129 156 182 207 215 213 229
260 263 260 256 249 202 185 199 227 76 5 275 244 282 310 52 81 48 42 23 199 305 341 333 46 48 0 49 55 56 43 64 43 30 67 78 104 272 212 226 42 251 219 209 183 139 174 192 199 194 200 208 224 244
257 247 244 250 233 181 171 183 169 116 125 143 230 274 277 119 114 112 45 14 171 89 21 359 33 128 5 49 84 360 79 83 29 129 198 312 93 299 247 254 214 276 354 248 204 216 9 122 175 173 192 205 224 244
258 246 241 242 196 163 162 163 158 123 153 160 225 233 215 48 83 88 281 77 57 14 76 44 12 24 14 73 58 59 2 70 272 64 213 142 165 236 232 252 253 225 227 282 203 199 209 223 209 202 209 221 232 248
252 238 229 210 146 156 159 159 142 133 143 135 222 224 107 59 287 318 218 114 47 30 62 113 256 20 329 92 68 71 33 46 352 66 180 275 265 256 258 247 254 268 270 227 163 202 215 233 232 232 216 223 219 237
244 212 182 131 138 160 158 153 137 122 99 166 194 81 71 337 205 353 104 157 116 217 137 156 232 342 36 357 106 346 128 160 38 67 300 334 272 259 6 356 291 252 323 226 241 275 263 245 229 244 231 214 203 208
167 121 117 128 150 157 157 154 149 136 93 60 69 107 136 182 185 212 81 135 226 41 163 182 141 199 122 106 149 166 194 192 111 137 266 253 252 255 265 258 355 352 299 255 236 246 228 232 237 241 234 203 193 186
93 108 130 161 157 161 165 166 152 109 128 202 158 105 130 122 71 124 90 161 240 175 166 167 165 189 155 167 114 194 219 214 112 199 236 248 280 267 262 228 307 338 320 315 276 256 254 257 242 224 232 209 177 168
62 91 125 166 177 188 190 167 160 115 233 195 138 48 198 179 215 183 210 218 104 162 161 159 129 204 150 183 132 249 93 231 234 224 236 253 351 329 212 171 295 326 328 333 305 257 282 256 255 251 229 187 183 175
333 332 291 289 192 145 158 156 145 350 251 140 143 222 206 128 167 174 212 239 171 134 144 129 116 226 144 173 196 176 199 237 226 236 261 7 334 290 126 147 31 19 12 2 351 336 316 303 292 277 219 180 184 183
320 153 74 93 109 127 128 122 139 247 174 176 219 255 167 198 142 185 182 213 155 150 145 186 143 193 148 238 215 219 241 233 200 220 250 250 188 197 194 167 35 7 23 7 357 337 312 292 265 265 269 211 204 189
42 60 133 117 122 133 132 279 224 217 270 214 238 231 260 236 252 183 190 170 152 185 202 171 217 308 123 226 225 200 218 261 224 246 197 203 204 196 142 90 57 30 15 7 351 336 300 276 247 198 247 210 197 195
59 138 144 145 153 160 212 234 253 226 250 224 236 191 212 233 196 194 193 165 172 199 184 218 127 205 229 232 217 213 223 248 243 259 262 212 206 180 134 90 56 22 1 347 350 320 278 273 276 176 179 172 175 190
313 196 178 175 198 258 245 200 229 252 230 220 238 215 234 236 233 248 180 164 200 127 143 178 208 218 222 213 238 211 215 217 239 180 227 209 198 149 130 97 72 32 13 18 15 7 339 351 96 61 47 143 158 174
100 343 191 176 203 259 252 202 202 257 252 166 202 196 222 225 189 198 192 176 174 186 190 217 222 211 209 202 202 216 201 181 180 203 230 178 160 156 128 96 61 55 56 55 66 56 27 43 32 44 42 44 151 139
162 105 108 148 193 242 274 247 236 236 256 237 181 214 227 196 217 208 199 161 195 217 226 220 230 216 191 157 192 202 159 166 190 209 191 145 149 156 148 135 121 78 64 74 79 49 22 36 73 148 317 53 98 118
128 156 129 184 235 192 261 229 272 309 238 289 228 215 237 237 226 206 133 195 229 234 212 209 204 179 180 193 195 202 183 177 166 145 123 132 149 166 169 144 149 100 111 102 44 32 30 70 265 299 160 118 111 94
160 190 191 183 253 202 262 199 248 204 236 201 196 235 221 234 186 148 242 228 254 236 227 203 166 148 161 134 135 141 173 167 176 187 166 162 136 135 136 139 140 100 118 125 123 68 71 57 113 128 122 149 137 112
161 230 226 222 197 264 252 234 224 240 226 227 216 246 220 224 152 225 256 254 246 126 184 180 157 121 99 123 164 164 151 164 143 146 153 156 151 148 152 139 145 102 75 118 126 102 75 65 101 122 144 130 115 104
310 267 137 284 237 248 240 230 213 205 246 196 225 252 197 185 251 245 255 271 244 258 174 174 181 175 129 100 109 114 141 169 166 146 144 162 127 131 137 135 138 115 150 173 136 136 107 101 108 131 151 166 151 123
230 212 177 222 218 226 255 269 229 244 251 231 238 287 222 240 247 251 247 336 320 190 191 195 169 132 85 60 124 155 145 152 129 105 141 168 167 162 158 159 150 135 177 169 145 146 134 132 140 124 126 130 130 201
261 252 214 225 271 279 269 250 252 254 244 231 214 215 240 250 258 334 13 25 325 23 23 157 157 137 122 122 94 94 104 98 54 78 110 134 126 112 160 162 168 126 154 152 131 132 147 142 138 152 141 151 137 305
237 242 224 160 231 229 273 279 253 235 212 184 208 219 242 235 318 21 5 351 349 83 79 64 62 91 104 122 128 127 100 104 103 101 100 91 80 102 113 117 112 125 143 135 132 125 128 140 120 114 116 24 43 34
231 213 214 248 234 229 230 230 250 226 124 178 230 232 248 319 358 345 11 34 110 109 98 93 39 84 86 82 118 119 137 153 155 155 151 138 146 134 138 151 149 152 138 127 76 67 70 52 68 110 113 95 71 58
235 188 222 235 227 234 240 198 270 59 191 354 348 300 256 326 21 355 111 138 119 101 106 131 194 178 149 174 178 166 186 201 213 184 173 179 164 142 159 167 159 147 144 142 143 135 144 158 141 145 159 149 116 115
185 186 223 233 251 240 266 42 128 151 157 172 198 302 327 14 86 51 46 84 109 92 129 171 182 199 187 182 196 197 206 209 215 218 224 154 153 157 162 166 159 157 168 170 172 179 167 175 153 149 164 169 145 227
196 208 210 221 227 107 207 164 139 145 115 106 50 339 216 227 96 112 90 183 157 161 156 236 177 198 230 215 209 221 188 210 205 207 198 185 175 171 167 162 159 161 170 177 185 187 199 200 170 155 155 171 200 246
204 202 220 250 243 207 124 183 120 128 91 67 46 8 21 16 46 65 160 204 213 184 200 214 240 233 244 238 240 255 209 221 206 197 190 186 176 169 168 169 169 181 194 206 208 220 209 184 189 189 197 209 224 280